Regional Weather Roundup
Issued by NWS

Home | Current Version | Previous Version | Graphics & Text | Print | Product List | Glossary On
Versions: 1 2 3 4 5 6 7 8 9 10 11 12 13 14 15 16 17 18 19 20 21 22 23 24 25 26 27 28 29 30 31 32 33 34 35 36 37 38 39 40 41 42 43 44 45 46 47 48 49 50
000
ASUS43 KFSD 250610
RWRSD

WEATHER ROUNDUP FOR SOUTH DAKOTA
NATIONAL WEATHER SERVICE SIOUX FALLS SD
100 AM CDT SUN JUN 25 2017

NOTE: "FAIR" INDICATES FEW OR NO CLOUDS BELOW 12,000 FEET WITH NO
SIGNIFICANT WEATHER AND/OR OBSTRUCTIONS TO VISIBILITY.


SDZ001>005-009-010-012>017-250700-
NORTHWEST AND NORTH CENTRAL SOUTH DAKOTA

CITY           SKY/WX    TMP DP  RH WIND       PRES   REMARKS
BUFFALO          N/A     53  32  44 E6        30.29S
FAITH            N/A     50  35  56 CALM      30.34R
MOBRIDGE       CLEAR     44  38  79 CALM      30.28R
$$

SDZ012>016-024>037-041>051-057-063-072>074-250700-
SOUTHWEST AND SOUTH CENTRAL SOUTH DAKOTA

CITY           SKY/WX    TMP DP  RH WIND       PRES   REMARKS
RAPID CTY ARPT CLEAR     49  32  52 CALM      30.38R
PIERRE         NOT AVBL
CUSTER         CLOUDY    50  27  40 NE7       30.43R
ELLSWORTH AFB  PTCLDY    50  31  48 CALM      30.37R
PHILIP         MOCLDY    54  35  48 NE8       30.33R
PINE RIDGE     MOCLDY    50  39  66 CALM      30.37R
SPEARFISH      FAIR      45  36  70 S6        30.39S
WINNER         FAIR      54  38  54 NW3       30.32R
$$

SDZ004>011-016>023-039-040-250700-
NORTHEAST SOUTH DAKOTA

CITY           SKY/WX    TMP DP  RH WIND       PRES   REMARKS
ABERDEEN       PTCLDY    49  44  83 W5        30.25S
WATERTOWN      MOCLDY    54  44  69 N16G25    30.21S
BROOKINGS      PTCLDY    53  45  74 NW9       30.22S
SISSETON         N/A     53  44  71 N14       30.20R
$$

SDZ017-020-022-023-036>040-048>070-250700-
SOUTHEAST SOUTH DAKOTA

CITY           SKY/WX    TMP DP  RH WIND       PRES   REMARKS
SIOUX FALLS    CLEAR     52  45  77 W6        30.23R
HURON          CLEAR     47  44  90 NW5       30.25S
CHAMBERLAIN    PTCLDY    56  43  62 CALM      30.29S
YANKTON        CLEAR     53  42  66 NW5       30.26R
$$

ABBREVIATIONS USED IN REMARKS
   TC - TEMPERATURE IN CELSIUS
  WCI - WIND CHILL INDEX
   HX - HEAT INDEX
  VSB - VISIBILITY





USA.gov is the U.S. government's official web portal to all federal, state and local government web resources and services.